Regional Weather Roundup
Issued by NWS

Home | Current Version | Previous Version | Graphics & Text | Print | Product List | Glossary Off
Versions: 1 2 3 4 5 6 7 8 9 10 11 12 13 14 15 16 17 18 19 20 21 22 23 24 25 26 27 28 29 30 31 32 33 34 35 36 37 38 39 40 41 42 43 44 45 46 47 48 49 50

780
ASUS43 KLMK 041010
RWRKY
KENTUCKY REGIONAL WEATHER ROUNDUP
NATIONAL WEATHER SERVICE LOUISVILLE KY
500 AM EST SUN DEC 04 2016

NOTE "FAIR" INDICATES FEW OR NO CLOUDS BELOW 12,000 FEET
WITH NO SIGNIFICANT WEATHER AND/OR OBSTRUCTIONS TO VISIBILITY.

KYZ001>023-026-027-061>063-070>075-041100-
WESTERN AND SOUTH CENTRAL KENTUCKY

CITY           SKY/WX    TMP DP  RH WIND       PRES   REMARKS
PADUCAH        CLOUDY    40  35  83 E8        30.11F WCI  34
HENDERSON      CLOUDY    39  32  75 E7        30.15F WCI  34
OWENSBORO      LGT RAIN  39  34  82 E8        30.17F WCI  33
HOPKINSVILLE   DRIZZLE   39  39  99 NE6       30.13R WCI  35
BOWLING GREEN  CLOUDY    40  37  89 E7        30.15F
GLASGOW        RAIN      38  38 100 E5        30.15F WCI  34
$$

KYZ024-025-028>034-038-045-046-053-041100-
NORTH CENTRAL KENTUCKY

CITY           SKY/WX    TMP DP  RH WIND       PRES   REMARKS
LOUISVILLE/SDF CLOUDY    41  29  62 E6        30.19F
LOUISVILLE/LOU CLOUDY    41  30  65 E5        30.20F
FORT KNOX      MIX PCPN  37  32  81 NE6       30.15F WCI  33
$$

KYZ035>037-039>044-047>052-055>060-089>105-041100-
NORTHEAST KENTUCKY

CITY           SKY/WX    TMP DP  RH WIND       PRES   REMARKS
LEXINGTON      CLOUDY    39  29  67 E7        30.20S WCI  34
COVINGTON      CLOUDY    37  31  78 E6        30.21S WCI  32
FRANKFORT      CLOUDY    39  29  67 E3        30.19S
$$

KYZ054-064>069-076>088-106>120-041100-
SOUTHEAST KENTUCKY

CITY           SKY/WX    TMP DP  RH WIND       PRES   REMARKS
JACKSON        CLOUDY    36  28  73 CALM      30.19F
LONDON         LGT RAIN  37  31  78 E3        30.19F
SOMERSET       LGT RAIN  36  36 100 CALM      30.21S
MIDDLESBORO    LGT RAIN  38  37  94 CALM      30.22F
MONTICELLO     LGT RAIN  38  36  92 VRB7      30.20F WCI  33
$$





USA.gov is the U.S. government's official web portal to all federal, state and local government web resources and services.